Stündliche Wetter Cegielnia

Heute, 16 Januar, Samstag

Zeit Temperatur Niederschläge Wind Luftdruck Luftfeuchtigkeit
00:00 -13°C° 0 mm 2 m/S 756 mmHg 90%
01:00 -13°C° 0 mm 2 m/S 756 mmHg 92%
02:00 -13°C° 0 mm 2 m/S 756 mmHg 93%
03:00 -13°C° 0 mm 2 m/S 756 mmHg 94%
04:00 -12°C° 0 mm 2 m/S 755 mmHg 95%
05:00 -12°C° 0 mm 2 m/S 755 mmHg 95%
06:00 -12°C° 0 mm 2 m/S 755 mmHg 95%
07:00 -10°C° 0 mm 2 m/S 755 mmHg 95%
08:00 -10°C° 0.1 mm 3 m/S 754 mmHg 94%
09:00 -9°C° 0.1 mm 4 m/S 754 mmHg 93%
10:00 -8°C° 0.1 mm 5 m/S 753 mmHg 92%
11:00 -8°C° 0.3 mm 6 m/S 752 mmHg 91%
12:00 -8°C° 0.3 mm 7 m/S 752 mmHg 90%
13:00 -8°C° 0.3 mm 9 m/S 751 mmHg 89%
14:00 -8°C° 0.5 mm 8 m/S 750 mmHg 90%
15:00 -8°C° 0.5 mm 8 m/S 750 mmHg 91%
16:00 -8°C° 0.5 mm 7 m/S 750 mmHg 91%
17:00 -11°C° 0.2 mm 7 m/S 750 mmHg 91%
18:00 -11°C° 0.2 mm 6 m/S 750 mmHg 91%
19:00 -13°C° 0.2 mm 5 m/S 751 mmHg 91%
20:00 -14°C° 0.1 mm 5 m/S 751 mmHg 90%
21:00 -15°C° 0.1 mm 4 m/S 752 mmHg 90%
22:00 -16°C° 0.1 mm 4 m/S 752 mmHg 90%
23:00 -17°C° 0 mm 4 m/S 753 mmHg 90%

Morgen, 17 Januar, Sonntag

Zeit Temperatur Niederschläge Wind Luftdruck Luftfeuchtigkeit
00:00 -18°C° 0 mm 4 m/S 753 mmHg 90%
01:00 -19°C° 0 mm 4 m/S 754 mmHg 90%
02:00 -19°C° 0 mm 4 m/S 754 mmHg 90%
03:00 -20°C° 0 mm 4 m/S 754 mmHg 90%
04:00 -20°C° 0 mm 4 m/S 755 mmHg 90%
05:00 -21°C° 0 mm 3 m/S 755 mmHg 91%
06:00 -21°C° 0 mm 3 m/S 756 mmHg 91%
07:00 -22°C° 0 mm 3 m/S 756 mmHg 92%
08:00 -21°C° 0 mm 3 m/S 757 mmHg 91%
09:00 -19°C° 0 mm 2 m/S 757 mmHg 90%
10:00 -18°C° 0 mm 2 m/S 757 mmHg 89%
11:00 -18°C° 0 mm 2 m/S 758 mmHg 87%
12:00 -17°C° 0 mm 2 m/S 758 mmHg 86%
13:00 -14°C° 0 mm 1 m/S 758 mmHg 84%
14:00 -14°C° 0 mm 1 m/S 758 mmHg 87%
15:00 -15°C° 0 mm 1 m/S 758 mmHg 89%
16:00 -15°C° 0 mm 1 m/S 758 mmHg 92%
17:00 -16°C° 0 mm 1 m/S 758 mmHg 92%
18:00 -16°C° 0 mm 1 m/S 758 mmHg 92%
19:00 -16°C° 0 mm 1 m/S 759 mmHg 92%
20:00 -16°C° 0 mm 1 m/S 759 mmHg 91%
21:00 -16°C° 0 mm 0 m/S 759 mmHg 91%
22:00 -16°C° 0 mm 0 m/S 759 mmHg 90%
23:00 -16°C° 0 mm 0 m/S 759 mmHg 90%

übermorgen, 18 Januar, Montag

Zeit Temperatur Niederschläge Wind Luftdruck Luftfeuchtigkeit
00:00 -16°C° 0 mm 1 m/S 759 mmHg 90%
01:00 -16°C° 0 mm 1 m/S 759 mmHg 90%
02:00 -16°C° 0 mm 1 m/S 759 mmHg 90%
03:00 -16°C° 0 mm 1 m/S 759 mmHg 90%
04:00 -16°C° 0 mm 0 m/S 759 mmHg 90%
05:00 -16°C° 0 mm 0 m/S 759 mmHg 89%
06:00 -16°C° 0 mm 0 m/S 759 mmHg 89%
07:00 -16°C° 0 mm 0 m/S 760 mmHg 88%
08:00 -15°C° 0 mm 0 m/S 760 mmHg 87%
09:00 -14°C° 0 mm 1 m/S 759 mmHg 85%
10:00 -13°C° 0 mm 1 m/S 759 mmHg 83%
11:00 -12°C° 0 mm 1 m/S 759 mmHg 82%
12:00 -11°C° 0 mm 1 m/S 759 mmHg 80%
13:00 -10°C° 0 mm 1 m/S 759 mmHg 79%
14:00 -11°C° 0 mm 1 m/S 759 mmHg 82%
15:00 -12°C° 0 mm 1 m/S 758 mmHg 85%
16:00 -12°C° 0 mm 0 m/S 758 mmHg 88%
17:00 -12°C° 0 mm 1 m/S 758 mmHg 89%
18:00 -12°C° 0 mm 1 m/S 758 mmHg 89%
19:00 -12°C° 0 mm 1 m/S 758 mmHg 90%
20:00 -14°C° 0 mm 2 m/S 758 mmHg 90%
21:00 -14°C° 0 mm 2 m/S 758 mmHg 91%
22:00 -15°C° 0 mm 2 m/S 758 mmHg 91%
23:00 -14°C° 0 mm 2 m/S 758 mmHg 91%

19 Januar, Dienstag

Zeit Temperatur Niederschläge Wind Luftdruck Luftfeuchtigkeit
00:00 -14°C° 0 mm 2 m/S 757 mmHg 92%
01:00 -14°C° 0 mm 2 m/S 757 mmHg 92%
02:00 -14°C° 0 mm 2 m/S 757 mmHg 92%
03:00 -13°C° 0 mm 2 m/S 756 mmHg 92%
04:00 -12°C° 0 mm 2 m/S 756 mmHg 92%
05:00 -12°C° 0.1 mm 2 m/S 756 mmHg 93%
06:00 -10°C° 0.1 mm 2 m/S 756 mmHg 94%
07:00 -10°C° 0.1 mm 3 m/S 756 mmHg 95%
08:00 -9°C° 0.1 mm 3 m/S 756 mmHg 95%
09:00 -8°C° 0.1 mm 3 m/S 755 mmHg 95%
10:00 -7°C° 0.1 mm 3 m/S 755 mmHg 95%
11:00 -4°C° 0.1 mm 2 m/S 755 mmHg 96%
12:00 -3°C° 0.1 mm 2 m/S 755 mmHg 96%
13:00 -2°C° 0.1 mm 2 m/S 755 mmHg 97%
14:00 -2°C° 0.1 mm 2 m/S 755 mmHg 97%
15:00 -2°C° 0.1 mm 2 m/S 754 mmHg 97%
16:00 -1°C° 0.1 mm 2 m/S 754 mmHg 97%
17:00 -2°C° 0 mm 3 m/S 754 mmHg 96%
18:00 -4°C° 0 mm 3 m/S 754 mmHg 95%
19:00 -4°C° 0 mm 3 m/S 754 mmHg 94%
20:00 -4°C° 0 mm 4 m/S 754 mmHg 93%
21:00 -4°C° 0 mm 4 m/S 753 mmHg 92%
22:00 -5°C° 0 mm 5 m/S 753 mmHg 91%
23:00 -5°C° 0.1 mm 5 m/S 753 mmHg 92%

20 Januar, Mittwoch

Zeit Temperatur Niederschläge Wind Luftdruck Luftfeuchtigkeit
00:00 -5°C° 0.1 mm 5 m/S 752 mmHg 93%
01:00 -5°C° 0.1 mm 5 m/S 752 mmHg 95%
02:00 -5°C° 0.4 mm 5 m/S 752 mmHg 95%
03:00 -4°C° 0.4 mm 5 m/S 751 mmHg 95%
04:00 -4°C° 0.4 mm 6 m/S 751 mmHg 95%
05:00 -2°C° 0.1 mm 5 m/S 751 mmHg 95%
06:00 -2°C° 0.1 mm 5 m/S 751 mmHg 95%
07:00 -1°C° 0.1 mm 5 m/S 751 mmHg 94%
08:00 -1°C° 0 mm 5 m/S 750 mmHg 95%
09:00 -1°C° 0 mm 5 m/S 750 mmHg 95%
10:00 -1°C° 0 mm 5 m/S 750 mmHg 95%
11:00 -1°C° 0 mm 5 m/S 750 mmHg 96%
12:00 0°C° 0 mm 5 m/S 750 mmHg 96%
13:00 0°C° 0 mm 5 m/S 750 mmHg 96%
14:00 0°C° 0 mm 5 m/S 749 mmHg 93%
15:00 0°C° 0 mm 5 m/S 749 mmHg 90%
16:00 0°C° 0 mm 5 m/S 749 mmHg 87%
17:00 0°C° 0 mm 5 m/S 749 mmHg 86%
18:00 -1°C° 0 mm 5 m/S 749 mmHg 85%
19:00 -1°C° 0 mm 5 m/S 749 mmHg 84%
20:00 -1°C° 0 mm 5 m/S 749 mmHg 84%
21:00 -1°C° 0 mm 5 m/S 749 mmHg 84%
22:00 -1°C° 0 mm 5 m/S 749 mmHg 84%
23:00 -1°C° 0 mm 5 m/S 749 mmHg 84%

21 Januar, Donnerstag

Zeit Temperatur Niederschläge Wind Luftdruck Luftfeuchtigkeit
00:00 -1°C° 0 mm 5 m/S 748 mmHg 84%
01:00 -1°C° 0 mm 5 m/S 748 mmHg 84%
02:00 -1°C° 0 mm 5 m/S 748 mmHg 85%
03:00 -2°C° 0 mm 5 m/S 748 mmHg 85%
04:00 -2°C° 0 mm 5 m/S 748 mmHg 85%
05:00 -2°C° 0 mm 5 m/S 748 mmHg 85%
06:00 -2°C° 0 mm 5 m/S 747 mmHg 85%
07:00 -2°C° 0 mm 5 m/S 747 mmHg 86%
08:00 -2°C° 0 mm 4 m/S 747 mmHg 86%
09:00 -1°C° 0 mm 4 m/S 747 mmHg 87%
10:00 -1°C° 0 mm 4 m/S 747 mmHg 87%
11:00 0°C° 0 mm 4 m/S 747 mmHg 90%
12:00 0°C° 0 mm 4 m/S 746 mmHg 93%
13:00 0°C° 0 mm 4 m/S 746 mmHg 95%
14:00 0°C° 0 mm 4 m/S 746 mmHg 94%
15:00 0°C° 0 mm 4 m/S 746 mmHg 93%
16:00 0°C° 0 mm 4 m/S 746 mmHg 92%
17:00 0°C° 0 mm 4 m/S 746 mmHg 91%
18:00 0°C° 0 mm 4 m/S 746 mmHg 90%
19:00 0°C° 0 mm 4 m/S 746 mmHg 89%
20:00 -1°C° 0 mm 4 m/S 747 mmHg 90%
21:00 -1°C° 0 mm 4 m/S 747 mmHg 91%
22:00 -2°C° 0 mm 4 m/S 748 mmHg 91%
23:00 -1°C° 0 mm 3 m/S 748 mmHg 91%
Mehr zeigen

Wir brauchen deine Erlaubnis

Meteoprog und unser Service Anbieter werden persönliche Daten aufbewahren, so wie Cookies, Geräte Bezeichnung oder ähnliche Technologien von deinem Gerät und Prozess, so wie Persönliche Daten Inhalte und Werbungen, genauso wie social Media und den Verkehr zu analysieren.

  • Aufbewahrung und/oder Zugang zu deiner Geräte Informationen.

    Cookies, Geräte Bezeichnung oder andere Informationen, können aufbewahrt oder Zugang zu deinem Gerät erhalten, für den Grund, der oben angegeben wird.

  • Personalisierte Werbung und Inhalte, Messungen, Einblick in das Publikum und Produkt Entwicklung.

    Werbungen und Inhalte können personalisiert werden, basierend auf ein Profil. Mehr Daten können besser personalisierte Werbungen und Inhalte hinzufügen. Werbung und Inhalte können gezeigt und gemessen werden. Einblicke über das Publikum, welche die Werbung gesehen haben und den Inhalt, können abgeleitet werden. So wie Daten können genutzt werden, um es zu verbessern oder die Benutzer Erfahrung zu verbessern das System und die Software.

Wenn du “Ich stimme zu” klickst, erlaubst du uns, die Cookies zu benutzen die Geräte Bezeichnung, den Web oder ähnliche Technologien zu benutzen. Deine Settings, können in deinem Gerät bei deinem Browser geändert werden.

Für den bestimmten Zweck, berechtigten Interessen beruhen darauf, mehr als auf den Inhalt. Du kannst mehr darüber in unseren Privaten und Cookie Politik lesen.